| time (UTC) | temp C | wind direction | speed KPH | gust KPH | rain 1hr cm | rain 24hr cm | rain mn cm | humidity % | barometer mb |
| 20260503071510 | 22 | 119 | 0.0 | 0.0 | 0.00 | 0.00 | 0.00 | 63 | 1015.0 |
| 20260503060105 | 23 | 101 | 4.8 | 17.7 | 0.00 | 0.00 | 0.00 | 69 | 1015.0 |
| 20260503054546 | 24 | 168 | 9.7 | 19.3 | 0.00 | 0.00 | 0.00 | 68 | 1014.9 |
| 20260503053042 | 24 | 98 | 9.7 | 17.7 | 0.00 | 0.00 | 0.00 | 67 | 1014.8 |
| 20260503051535 | 24 | 103 | 1.6 | 16.1 | 0.00 | 0.00 | 0.00 | 65 | 1015.0 |
| 20260503050031 | 23 | 115 | 6.4 | 16.1 | 0.00 | 0.00 | 0.00 | 65 | 1014.9 |
| 20260503044529 | 25 | 91 | 0.0 | 0.0 | 0.00 | 0.00 | 0.00 | 66 | 1014.8 |
| 20260503043021 | 24 | 131 | 0.0 | 27.4 | 0.00 | 0.00 | 0.00 | 67 | 1014.9 |
| 20260503041517 | 24 | 68 | 0.0 | 0.0 | 0.00 | 0.00 | 0.00 | 66 | 1014.8 |
| 20260503040012 | 24 | 118 | 0.0 | 3.2 | 0.00 | 0.00 | 0.00 | 68 | 1015.0 |
| 20260503034515 | 23 | 79 | 1.6 | 16.1 | 0.00 | 0.00 | 0.00 | 69 | 1015.0 |
| 20260503033010 | 23 | 106 | 0.0 | 16.1 | 0.00 | 0.00 | 0.00 | 68 | 1015.0 |
| 20260503031505 | 24 | 101 | 11.3 | 20.9 | 0.00 | 0.00 | 0.00 | 68 | 1015.2 |
| 20260503030001 | 24 | 143 | 6.4 | 22.5 | 0.00 | 0.00 | 0.00 | 66 | 1015.3 |
| 20260503024556 | 24 | 123 | 1.6 | 17.7 | 0.00 | 0.00 | 0.00 | 68 | 1015.6 |
| 20260503023101 | 24 | 114 | 1.6 | 20.9 | 0.00 | 0.00 | 0.00 | 69 | 1015.8 |
| 20260503021554 | 24 | 72 | 6.4 | 20.9 | 0.00 | 0.00 | 0.00 | 68 | 1016.0 |
| 20260503020044 | 24 | 103 | 9.7 | 24.1 | 0.00 | 0.00 | 0.00 | 67 | 1016.1 |
| 20260503014538 | 24 | 101 | 0.0 | 0.0 | 0.00 | 0.00 | 0.00 | 67 | 1016.3 |
| 20260503013034 | 23 | 116 | 8.0 | 19.3 | 0.00 | 0.00 | 0.00 | 69 | 1016.6 |
| 20260503011530 | 23 | 60 | 0.0 | 19.3 | 0.00 | 0.00 | 0.00 | 69 | 1016.9 |
| 20260503010031 | 23 | 124 | 6.4 | 17.7 | 0.00 | 0.00 | 0.00 | 69 | 1017.2 |
| 20260503004521 | 23 | 172 | 0.0 | 0.0 | 0.00 | 0.00 | 0.00 | 67 | 1017.4 |
| 20260503003015 | 22 | 188 | 0.0 | 0.0 | 0.00 | 0.00 | 0.00 | 67 | 1017.5 |
| 20260503001511 | 22 | 153 | 0.0 | 0.0 | 0.00 | 0.00 | 0.00 | 65 | 1017.8 |
| 20260503000014 | 22 | 177 | 0.0 | 0.0 | 0.00 | 0.00 | 0.00 | 64 | 1017.7 |
| 20260502234602 | 21 | 155 | 0.0 | 11.3 | 0.00 | 0.00 | 0.00 | 61 | 1018.0 |
| 20260502233101 | 21 | 171 | 0.0 | 0.0 | 0.00 | 0.00 | 0.00 | 61 | 1018.0 |
| 20260502231553 | 21 | 160 | 0.0 | 6.4 | 0.00 | 0.00 | 0.00 | 58 | 1018.1 |
| 20260502230050 | 20 | 183 | 0.0 | 0.0 | 0.00 | 0.00 | 0.00 | 54 | 1018.1 |
| 20260502224544 | 20 | 170 | 0.0 | 0.0 | 0.00 | 0.00 | 0.00 | 50 | 1018.0 |
| 20260502223039 | 19 | 189 | 0.0 | 12.9 | 0.00 | 0.00 | 0.00 | 41 | 1018.0 |
| 20260502221534 | 18 | 231 | 0.0 | 14.5 | 0.00 | 0.00 | 0.00 | 36 | 1017.7 |
| 20260502220032 | 18 | 167 | 0.0 | 0.0 | 0.00 | 0.00 | 0.00 | 26 | 1017.7 |
| 20260502214525 | 18 | 215 | 0.0 | 0.0 | 0.00 | 0.00 | 0.00 | 11 | 1017.6 |
| 20260502213025 | 17 | 210 | 0.0 | 0.0 | 0.00 | 0.00 | 0.00 | 2 | 1017.4 |
| 20260502211516 | 17 | 229 | 0.0 | 0.0 | 0.00 | 0.00 | 0.00 | 1 | 1017.4 |
| 20260502210011 | 17 | 212 | 0.0 | 11.3 | 0.00 | 0.00 | 0.00 | 1 | 1017.3 |
| 20260502204515 | -17 | 0.0 | 0.0 | 0.00 | 0.00 | 0.00 | 1017.1 | ||
| 20260502203007 | -17 | 0.0 | 0.0 | 0.00 | 0.00 | 0.00 | 1017.1 | ||
| 20260502201559 | -17 | 0.0 | 0.0 | 0.00 | 0.00 | 0.00 | 1016.9 | ||
| 20260502200057 | -17 | 0.0 | 0.0 | 0.00 | 0.00 | 0.00 | 1016.9 | ||
| 20260502194549 | -17 | 0.0 | 0.0 | 0.00 | 0.00 | 0.00 | 1016.7 | ||
| 20260502193046 | -17 | 0.0 | 0.0 | 0.00 | 0.00 | 0.00 | 1016.6 | ||
| 20260502191545 | -17 | 0.0 | 0.0 | 0.00 | 0.00 | 0.00 | 1016.7 | ||
| 20260502190037 | -17 | 0.0 | 0.0 | 0.00 | 0.00 | 0.00 | 1016.4 | ||
| 20260502184537 | -17 | 0.0 | 0.0 | 0.00 | 0.00 | 0.00 | 1016.4 | ||
| 20260502183029 | -17 | 0.0 | 0.0 | 0.00 | 0.00 | 0.00 | 1016.4 | ||
| 20260502181524 | -17 | 0.0 | 0.0 | 0.00 | 0.00 | 0.00 | 1016.4 | ||
| 20260502163101 | 17 | 225 | 0.0 | 0.0 | 0.00 | 0.00 | 0.00 | 1 | 1016.9 |
| 20260502161554 | 17 | 217 | 0.0 | 0.0 | 0.00 | 0.00 | 0.00 | 1 | 1016.9 |
| 20260502151540 | 18 | 222 | 0.0 | 0.0 | 0.00 | 0.00 | 0.00 | 1 | 1017.3 |
| 20260502130107 | 18 | 194 | 0.0 | 0.0 | 0.00 | 0.00 | 0.00 | 1 | 1017.8 |
| 20260502123054 | 18 | 169 | 0.0 | 0.0 | 0.00 | 0.00 | 0.00 | 1 | 1017.7 |
| 20260502121538 | 18 | 169 | 0.0 | 0.0 | 0.00 | 0.00 | 0.00 | 1 | 1018.0 |
| 20260502114530 | 18 | 108 | 0.0 | 0.0 | 0.00 | 0.00 | 0.00 | 1 | 1018.0 |
| 20260502113025 | 18 | 144 | 0.0 | 0.0 | 0.00 | 0.00 | 0.00 | 1 | 1018.1 |
| 20260502111520 | 18 | 194 | 0.0 | 0.0 | 0.00 | 0.00 | 0.00 | 1 | 1018.2 |
| 20260502110026 | 18 | 134 | 0.0 | 0.0 | 0.00 | 0.00 | 0.00 | 1 | 1018.0 |
| 20260502104519 | 18 | 177 | 0.0 | 0.0 | 0.00 | 0.00 | 0.00 | 1 | 1018.1 |
| 20260502103022 | 18 | 152 | 0.0 | 0.0 | 0.00 | 0.00 | 0.00 | 1 | 1018.0 |
| 20260502101517 | 18 | 157 | 0.0 | 0.0 | 0.00 | 0.00 | 0.00 | 1 | 1017.9 |